Time,TemperatureF,DewpointF,PressureIn,WindDirection,WindDirectionDegrees,WindSpeedMPH,WindSpeedGustMPH,Humidity,HourlyPrecipIn,Conditions,Clouds,dailyrainin,SoftwareType,DateUTC
2013-02-12 00:00:00,45.0,33.5,30.08,East,90,0.0,0.0,64,0.00,,SKC,0.06,VWS V14.00,2013-02-12 05:00:00,
2013-02-12 00:20:00,44.8,33.8,30.09,East,90,0.0,0.0,65,0.00,,SKC,0.06,VWS V14.00,2013-02-12 05:20:00,
2013-02-12 00:40:00,44.1,34.2,30.09,East,90,0.0,0.0,68,0.00,,SKC,0.06,VWS V14.00,2013-02-12 05:40:00,
2013-02-12 01:00:00,43.7,34.2,30.09,East,90,0.0,0.0,69,0.00,,SKC,0.06,VWS V14.00,2013-02-12 06:00:00,
2013-02-12 01:20:00,43.5,34.8,30.10,East,90,0.0,0.0,71,0.00,,SKC,0.06,VWS V14.00,2013-02-12 06:20:00,
2013-02-12 01:40:00,43.3,34.6,30.08,ENE,68,0.0,0.0,71,0.00,,SKC,0.06,VWS V14.00,2013-02-12 06:40:00,
2013-02-12 02:00:00,43.5,34.4,30.08,NE,45,0.0,0.0,70,0.00,,SKC,0.06,VWS V14.00,2013-02-12 07:00:00,
2013-02-12 02:20:00,43.2,34.0,30.09,NE,45,0.0,0.0,70,0.00,,SKC,0.06,VWS V14.00,2013-02-12 07:20:00,
2013-02-12 02:41:00,43.2,34.4,30.10,NE,45,0.0,0.0,71,0.00,,SKC,0.06,VWS V14.00,2013-02-12 07:41:00,
2013-02-12 03:01:00,43.0,34.2,30.12,NE,45,0.0,0.0,71,0.00,,SKC,0.02,VWS V14.00,2013-02-12 08:01:00,
2013-02-12 03:40:00,42.8,34.4,30.07,NE,45,0.0,0.0,72,0.00,,SKC,0.02,VWS V14.00,2013-02-12 08:40:00,
2013-02-12 04:00:00,42.6,33.9,30.09,NE,45,0.0,0.0,71,0.00,,SKC,0.00,VWS V14.00,2013-02-12 09:00:00,
2013-02-12 04:20:00,42.4,33.4,30.07,WNW,292,0.0,0.0,70,0.00,,SKC,0.00,VWS V14.00,2013-02-12 09:20:00,
2013-02-12 04:40:00,42.8,32.6,30.09,East,90,0.0,0.0,67,0.00,,SKC,0.00,VWS V14.00,2013-02-12 09:40:00,
2013-02-12 05:00:00,42.6,32.4,30.10,NNE,22,0.0,0.0,67,0.00,,SKC,0.00,VWS V14.00,2013-02-12 10:00:00,
2013-02-12 05:20:00,42.4,31.9,30.10,NNE,22,0.0,0.0,66,0.00,,SKC,0.00,VWS V14.00,2013-02-12 10:20:00,
2013-02-12 05:40:00,42.3,30.6,30.10,NNW,338,0.0,1.8,63,0.00,,SKC,0.00,VWS V14.00,2013-02-12 10:40:00,
2013-02-12 06:00:00,41.9,30.2,30.11,NNE,22,0.0,0.0,63,0.00,,SKC,0.00,VWS V14.00,2013-02-12 11:00:00,
2013-02-12 06:20:00,41.2,30.3,30.11,NE,45,0.0,0.0,65,0.00,,SKC,0.00,VWS V14.00,2013-02-12 11:20:00,
2013-02-12 06:40:00,40.6,30.2,30.12,NE,45,0.0,0.0,66,0.00,,SKC,0.00,VWS V14.00,2013-02-12 11:40:00,
2013-02-12 07:00:00,40.1,30.4,30.11,ENE,68,0.0,0.0,68,0.00,,SKC,0.00,VWS V14.00,2013-02-12 12:00:00,
2013-02-12 07:20:00,39.4,29.7,30.11,East,90,0.0,0.0,68,0.00,,SKC,0.00,VWS V14.00,2013-02-12 12:20:00,
2013-02-12 07:40:00,38.8,29.9,30.12,East,90,0.0,0.0,70,0.00,,SKC,0.00,VWS V14.00,2013-02-12 12:40:00,
2013-02-12 08:00:00,38.8,30.3,30.11,East,90,0.0,0.0,71,0.00,,SKC,0.00,VWS V14.00,2013-02-12 13:00:00,
2013-02-12 08:20:00,39.4,30.4,30.10,NE,45,0.0,1.1,70,0.00,,SKC,0.00,VWS V14.00,2013-02-12 13:20:00,
2013-02-12 08:40:00,40.6,30.9,30.10,SW,225,0.0,2.5,68,0.00,,SKC,0.00,VWS V14.00,2013-02-12 13:40:00,
2013-02-12 09:01:00,41.2,31.1,30.09,SE,135,0.0,2.2,67,0.00,,SKC,0.00,VWS V14.00,2013-02-12 14:01:00,
2013-02-12 09:20:00,42.4,31.1,30.08,West,270,0.0,3.6,64,0.00,,SKC,0.00,VWS V14.00,2013-02-12 14:20:00,
2013-02-12 09:40:00,43.7,31.1,30.10,NNW,338,0.0,5.1,61,0.00,,SKC,0.00,VWS V14.00,2013-02-12 14:40:00,
2013-02-12 10:00:00,45.0,31.1,30.08,WSW,248,0.0,0.0,58,0.00,,SKC,0.00,VWS V14.00,2013-02-12 15:00:00,
2013-02-12 10:20:00,46.0,30.8,30.06,North,0,2.0,4.3,55,0.00,,SKC,0.00,VWS V14.00,2013-02-12 15:20:00,
2013-02-12 10:40:00,47.7,31.9,30.07,NNE,22,0.0,2.0,54,0.00,,SKC,0.00,VWS V14.00,2013-02-12 15:40:00,
2013-02-12 11:00:00,48.6,31.8,30.05,ENE,68,0.0,4.3,52,0.00,,SKC,0.00,VWS V14.00,2013-02-12 16:00:00,
2013-02-12 11:20:00,48.9,31.6,30.07,North,0,0.0,0.0,51,0.00,,SKC,0.00,VWS V14.00,2013-02-12 16:20:00,
2013-02-12 11:41:00,49.1,31.3,30.08,NNE,22,0.0,0.0,50,0.00,,SKC,0.00,VWS V14.00,2013-02-12 16:41:00,
2013-02-12 12:20:00,49.6,31.3,30.06,NE,45,0.0,0.0,49,0.00,,SKC,0.00,VWS V14.00,2013-02-12 17:20:00,
2013-02-12 12:40:00,49.6,30.2,30.06,WSW,248,0.0,3.4,47,0.00,,SKC,0.00,VWS V14.00,2013-02-12 17:40:00,
2013-02-12 13:00:00,49.6,30.2,30.04,NNW,338,0.0,0.0,47,0.00,,SKC,0.00,VWS V14.00,2013-02-12 18:00:00,
2013-02-12 13:20:00,50.2,30.8,30.01,NE,45,0.0,0.0,47,0.00,,SKC,0.00,VWS V14.00,2013-02-12 18:20:00,
2013-02-12 13:40:00,50.4,30.9,30.00,ENE,68,0.0,0.0,47,0.00,,SKC,0.00,VWS V14.00,2013-02-12 18:40:00,
2013-02-12 14:00:00,50.0,30.0,30.02,North,0,0.0,0.0,46,0.00,,SKC,0.00,VWS V14.00,2013-02-12 19:00:00,
2013-02-12 14:20:00,49.6,30.8,30.00,ENE,68,0.0,0.0,48,0.00,,SKC,0.00,VWS V14.00,2013-02-12 19:20:00,
2013-02-12 14:40:00,50.2,31.8,30.01,NNW,338,0.0,0.0,49,0.00,,SKC,0.00,VWS V14.00,2013-02-12 19:40:00,
2013-02-12 15:00:00,50.2,31.8,30.00,NNW,338,0.0,0.0,49,0.00,,SKC,0.00,VWS V14.00,2013-02-12 20:00:00,
2013-02-12 15:20:00,50.2,31.8,29.98,NE,45,0.0,0.0,49,0.00,,SKC,0.00,VWS V14.00,2013-02-12 20:20:00,
2013-02-12 15:40:00,50.0,31.1,29.97,East,90,0.0,1.3,48,0.00,,SKC,0.00,VWS V14.00,2013-02-12 20:40:00,
2013-02-12 16:00:00,50.0,30.6,29.97,North,0,0.0,0.0,47,0.00,,SKC,0.00,VWS V14.00,2013-02-12 21:00:00,
2013-02-12 16:20:00,50.0,31.1,29.94,NE,45,0.0,0.0,48,0.00,,SKC,0.00,VWS V14.00,2013-02-12 21:20:00,
2013-02-12 17:00:00,49.1,31.3,29.93,North,0,0.0,0.0,50,0.00,,SKC,0.00,VWS V14.00,2013-02-12 22:00:00,
2013-02-12 17:20:00,48.9,31.1,29.89,SE,135,0.0,0.0,50,0.00,,SKC,0.00,VWS V14.00,2013-02-12 22:20:00,
2013-02-12 17:40:00,48.6,31.3,29.95,SW,225,0.0,0.0,51,0.00,,SKC,0.00,VWS V14.00,2013-02-12 22:40:00,
2013-02-12 18:00:00,48.4,31.1,29.96,SW,225,0.0,0.0,51,0.00,,SKC,0.00,VWS V14.00,2013-02-12 23:00:00,
2013-02-12 18:20:00,47.8,31.5,29.94,SW,225,0.0,0.0,53,0.00,,SKC,0.00,VWS V14.00,2013-02-12 23:20:00,
2013-02-12 18:40:00,47.5,32.1,29.94,SW,225,0.0,0.0,55,0.00,,SKC,0.00,VWS V14.00,2013-02-12 23:40:00,
2013-02-12 19:00:00,46.6,34.3,29.91,East,90,0.0,0.0,62,0.02,,SKC,0.02,VWS V14.00,2013-02-13 00:00:00,
2013-02-12 19:20:00,45.1,34.8,29.90,NE,45,0.0,0.0,67,0.04,,SKC,0.04,VWS V14.00,2013-02-13 00:20:00,
2013-02-12 19:40:00,44.8,36.0,29.90,NE,45,0.0,0.0,71,0.04,,SKC,0.04,VWS V14.00,2013-02-13 00:40:00,
2013-02-12 20:00:00,44.2,36.2,29.88,ENE,68,0.0,0.0,73,0.02,,SKC,0.04,VWS V14.00,2013-02-13 01:00:00,
2013-02-12 20:20:00,43.9,36.1,29.89,NE,45,0.0,0.0,74,0.00,,SKC,0.04,VWS V14.00,2013-02-13 01:20:00,
2013-02-12 20:40:00,43.7,36.6,29.89,NNE,22,0.0,0.0,76,0.02,,SKC,0.06,VWS V14.00,2013-02-13 01:40:00,
2013-02-12 21:01:00,43.3,37.3,29.90,NNE,22,0.0,0.0,79,0.02,,SKC,0.06,VWS V14.00,2013-02-13 02:01:00,
2013-02-12 21:20:00,43.2,37.4,29.89,NNE,22,0.0,0.0,80,0.02,,SKC,0.06,VWS V14.00,2013-02-13 02:20:00,
2013-02-12 21:40:00,43.0,37.2,29.88,East,90,0.0,0.0,80,0.00,,SKC,0.06,VWS V14.00,2013-02-13 02:40:00,
2013-02-12 22:20:00,42.6,37.2,29.88,East,90,0.0,0.0,81,0.00,,SKC,0.06,VWS V14.00,2013-02-13 03:20:00,
2013-02-12 22:40:00,42.6,37.5,29.87,ENE,68,0.0,0.0,82,0.00,,SKC,0.06,VWS V14.00,2013-02-13 03:40:00,
2013-02-12 23:00:00,43.0,37.9,29.85,NE,45,0.0,0.0,82,0.00,,SKC,0.06,VWS V14.00,2013-02-13 04:00:00,
2013-02-12 23:20:00,42.4,37.7,29.84,North,0,0.0,0.0,83,0.02,,SKC,0.08,VWS V14.00,2013-02-13 04:20:00,
2013-02-12 23:40:00,42.3,37.5,29.81,NE,45,0.0,0.0,83,0.02,,SKC,0.08,VWS V14.00,2013-02-13 04:40:00,